Effective Sunday, March 17, 2024, the National Weather Service National Data Buoy Center will discontinue its Dial-A-Buoy Interactive Voice Response system. For more information, see Service Change Notice 24-06 (PDF).

Station LQAT2 - La Quinta, TX MET (8775132) Image indicating link to RSS feed of recent meteorological observations for station LQAT2


Conditions at LQAT2 as of
(2:48 pm CST)
2048 GMT on 02/21/2024:
     

Click on the graph icon in the table below to see a time series plot of the last five days of that observation.

5-day plot - Wind Direction Wind Direction (WDIR):SSE ( 150 deg true )
5-day plot - Wind Speed Wind Speed (WSPD): 16 kts
5-day plot - Wind Gust Wind Gust (GST): 19 kts
5-day plot - Atmospheric Pressure Atmospheric Pressure (PRES):30.04 in
5-day plot - Air Temperature Air Temperature (ATMP): 70.0 °F
5-day plot - Water Temperature Water Temperature (WTMP): 64.2 °F
5-day plot - Dew Point Dew Point (DEWP): 68.5 °F
5-day plot - Visibility Visibility (VIS): 5.9 nmi
5-day plot -  Wind Speed, Wind Gust and Atmospheric Pressure Combined plot of Wind Speed, Gust, and Air Pressure
Previous observations
TIME
(CST)
5-day plot - Wind Direction
WDIR
 
5-day plot - Wind Speed
WSPD
kts
5-day plot - Wind Gust
GST
kts
5-day plot - Wave Height
WVHT
ft
5-day plot - Dominant Wave Period
DPD
sec
5-day plot - Average Wave Period
APD
sec
5-day plot - Mean Wave Direction
MWD
 
5-day plot - Atmospheric Pressure
PRES
in
5-day plot - Pressure Tendency
PTDY
in
5-day plot - Air Temperature
ATMP
°F
5-day plot - Water Temperature
WTMP
°F
5-day plot - Dew Point
DEWP
°F
5-day plot - Salinity
SAL
psu
5-day plot - Visibility
VIS
nmi
5-day plot - Tide (above MLLW)
TIDE
ft
2024-02-21 02:42 pmSSE 16 18----30.04- 69.4 64.2 68.0- 5.9-
2024-02-21 02:36 pmSSE 17 19----30.04- 69.3 64.4 68.0- 5.9-
2024-02-21 02:30 pmSSE 16 18----30.05- 69.6 64.6 68.4- 5.9-
2024-02-21 02:24 pmSSE 15 18----30.05- 69.8 64.6 68.4- 5.9-
2024-02-21 02:18 pmSSE 15 17----30.06- 69.3 64.4 67.8- 5.9-
2024-02-21 02:12 pmSSE 15 17----30.06- 69.6 64.4 68.4- 5.9-
2024-02-21 02:06 pmSSE 15 17----30.06- 69.1 64.6 68.0- 5.9-
2024-02-21 02:00 pmSSE 15 16----30.06-0.11 69.3 64.6 68.2- 5.9-
2024-02-21 01:54 pmSSE 15 17----30.06- 69.6 64.6 68.5- 5.9-
2024-02-21 01:48 pmSSE 15 17----30.07- 69.8 64.6 68.7- 5.9-
2024-02-21 01:42 pmSSE 14 15----30.07- 69.8 64.4 68.7- 5.9-
2024-02-21 01:36 pmSSE 13 17----30.08- 69.3 63.9 68.2- 5.9-
2024-02-21 01:30 pmSSE 14 16----30.08- 69.4 63.9 68.4- 5.9-
2024-02-21 01:24 pmSSE 14 17----30.08- 69.3 63.9 68.2- 5.9-
2024-02-21 01:18 pmSSE 14 16----30.09- 69.4 64.0 68.5- 5.9-
2024-02-21 01:12 pmSSE 15 16----30.09- 68.9 64.0 68.0- 5.9-
2024-02-21 01:06 pmSSE 14 17----30.10- 69.4 64.0 68.4- 5.9-
2024-02-21 01:00 pmSSE 14 16----30.10-0.08 69.4 64.0 68.5- 5.9-
2024-02-21 12:54 pmSSE 14 16----30.11- 68.7 64.0 67.8- 5.9-
2024-02-21 12:48 pmSSE 13 16----30.12- 68.7 63.9 67.8- 5.9-
2024-02-21 12:42 pmSSE 13 15----30.12- 68.9 64.0 68.2- 5.9-
2024-02-21 12:36 pmSSE 13 16----30.12- 69.3 64.2 68.5- 5.9-
2024-02-21 12:30 pmSSE 13 15----30.13- 69.3 64.4 68.4- 5.9-
2024-02-21 12:24 pmSSE 13 15----30.14- 69.3 64.4 68.5- 5.9-
2024-02-21 12:18 pmSSE 13 15----30.14- 69.4 63.7 68.9- 5.9-
2024-02-21 12:12 pmSSE 13 15----30.14- 68.9 63.9 68.4- 5.9-
2024-02-21 12:06 pmSSE 13 15----30.14- 68.5 63.9 68.2- 5.9-
2024-02-21 12:00 pmSSE 13 16----30.15-0.02 68.2 64.0 67.8- 5.9-
2024-02-21 11:54 amSSE 14 16----30.15- 68.4 63.9 68.0- 5.9-
2024-02-21 11:48 amSSE 13 15----30.15- 68.5 63.7 68.2- 5.9-
2024-02-21 11:42 amSSE 13 15----30.16- 68.2 63.7 68.0- 5.9-
2024-02-21 11:36 amSSE 13 15----30.16- 69.3 63.5 69.1- 5.9-
2024-02-21 11:30 amSSE 12 15----30.16- 69.3 63.3 69.1- 5.9-
2024-02-21 11:24 amSSE 12 14----30.16- 68.7 63.3 68.7- 5.9-
2024-02-21 11:18 amSSE 11 13----30.16- 68.7 63.3 68.7- 5.9-
2024-02-21 11:12 amSSE 11 13----30.17- 68.2 63.1 68.2- 5.9-
2024-02-21 11:06 amSSE 11 12----30.17- 68.2 63.1 68.2- 5.9-
2024-02-21 11:00 amSSE 11 12----30.17+0.01 67.1 63.1 67.1- 5.9-
2024-02-21 10:54 amSSE 11 12----30.17- 67.3 63.3 67.3- 5.9-
2024-02-21 10:48 amSSE 11 11----30.17- 66.7 63.3 66.7- 5.9-
2024-02-21 10:42 amSSE 10 12----30.18- 66.6 63.1 66.6- 5.9-
2024-02-21 10:36 amSSE 9 10----30.18- 66.4 63.1 66.4- 5.9-
2024-02-21 10:30 amSSE 9 10----30.18- 66.2 63.1 66.2- 5.9-
2024-02-21 10:24 amSSE 8 9----30.18- 66.4 63.1 66.4- 5.9-
2024-02-21 10:18 amSSE 7 9----30.18- 66.6 63.0 66.6- 5.9-
2024-02-21 10:12 amSSE 7 9----30.18- 66.7 63.0 66.7- 5.9-
2024-02-21 10:06 amSSE 7 9----30.18- 67.3 63.0 67.3- 5.9-
2024-02-21 10:00 amSSE 8 10----30.18+0.04 66.7 63.0 66.7- 5.9-
2024-02-21 09:54 am S 8 10----30.18- 66.7 63.0 66.7- 5.9-
2024-02-21 09:48 amSSE 8 10----30.18- 66.2 63.0 66.2- 5.9-
2024-02-21 09:42 amSSE 8 10----30.17- 66.0 63.0 66.0- 5.9-
2024-02-21 09:36 am S 9 11----30.17- 65.8 63.0 65.8- 5.9-
2024-02-21 09:30 amSSE 8 10----30.17- 65.7 63.0 65.7- 5.9-
2024-02-21 09:24 amSSE 8 10----30.17- 65.8 63.0 65.8- 5.9-
2024-02-21 09:18 amSSE 8 10----30.17- 65.3 63.0 65.3- 5.9-
2024-02-21 09:12 amSSE 9 11----30.17- 65.1 62.8 65.1- 5.9-
2024-02-21 09:06 amSSE 8 9----30.17- 64.9 62.8 64.9- 5.9-
2024-02-21 09:00 amSSE 8 9----30.17+0.04- 62.8-- 5.9-
2024-02-21 08:54 amSSE 8 9----30.17-- 62.8-- 5.9-
2024-02-21 08:48 amSSE 8 9----30.17- 64.2 62.8 64.2- 5.9-
2024-02-21 08:42 amSSE 8 9----30.16- 64.0 62.8 64.0- 5.9-
2024-02-21 08:36 amSSE 8 9----30.16- 64.0 62.8 64.0- 5.9-
2024-02-21 08:30 amSSE 7 8----30.16- 63.9 62.8 63.9- 5.9-
2024-02-21 08:24 amSSE 7 8----30.16- 63.9 63.0 63.9- 5.9-
2024-02-21 08:18 amSSE 8 9----30.16- 63.7 63.0 63.7- 5.9-
2024-02-21 08:12 amSSE 8 8----30.16- 63.7 62.8 63.7- 5.9-
2024-02-21 08:06 amSSE 7 8----30.16- 63.7 62.8 63.7- 5.9-
2024-02-21 08:00 amSSE 7 8----30.16+0.03 63.5 63.0 63.5- 5.9-
2024-02-21 07:54 amSSE 8 9----30.15- 63.3 63.0 63.3- 5.9-
2024-02-21 07:48 amSSE 7 9----30.15- 63.1 62.8 63.1- 5.9-
2024-02-21 07:42 amSSE 8 9----30.15- 63.1 63.0 63.1- 5.9-
2024-02-21 07:36 am SE 8 9----30.15- 63.0 63.0 63.0- 5.9-
2024-02-21 07:30 amSSE 8 9----30.15- 62.8 63.0 62.8- 5.9-
2024-02-21 07:24 am SE 8 9----30.14- 62.6 63.0 62.6- 5.9-
2024-02-21 07:18 amSSE 7 7----30.14- 62.6 62.8 62.6- 5.9-
2024-02-21 07:12 am-------30.14-- 62.8-- 5.9-
2024-02-21 07:06 am-------30.14-- 62.8-- 5.9-
2024-02-21 07:00 am-------30.14+0.00- 62.8-- 5.9-
2024-02-21 06:54 am-------30.14-- 62.8-- 5.9-
2024-02-21 06:48 am-------30.14-- 62.8-- 5.9-
2024-02-21 06:42 am-------30.14-- 63.0-- 5.9-
2024-02-21 06:36 am-------30.13-- 62.8-- 5.9-
2024-02-21 06:30 am-------30.13-- 62.8-- 5.9-
2024-02-21 06:24 am-------30.13-- 62.8-- 5.9-
2024-02-21 06:18 am-------30.13-- 63.0-- 5.9-
2024-02-21 06:12 am-------30.13-- 63.0-- 5.9-
2024-02-21 06:06 am-------30.13-- 63.0-- 5.9-
2024-02-21 06:00 am-------30.13-0.02- 63.0-- 5.9-
2024-02-21 05:54 am-------30.13-- 63.0-- 5.9-
2024-02-21 05:48 am-------30.13-- 63.0-- 5.9-
2024-02-21 05:42 am-------30.13-- 63.0-- 5.9-
2024-02-21 05:36 am-------30.13-- 63.0-- 5.9-
2024-02-21 05:30 am-------30.13-- 62.8-- 5.9-
2024-02-21 05:24 am-------30.13-- 62.8-- 5.9-
2024-02-21 05:18 am-------30.13-- 62.8-- 5.9-
2024-02-21 05:12 am-------30.13-- 63.0-- 5.9-
2024-02-21 05:06 am-------30.13-- 62.8-- 5.9-
2024-02-21 05:00 am-------30.13-0.03- 63.0-- 5.9-
2024-02-21 04:54 am-------30.13-- 63.0-- 5.9-
2024-02-21 04:48 am-------30.13-- 63.0-- 5.9-
2024-02-21 04:42 am-------30.14-- 63.0-- 5.9-
2024-02-21 04:36 am-------30.14-- 63.0-- 5.9-
2024-02-21 04:30 am-------30.14-- 63.0-- 5.9-
2024-02-21 04:24 am-------30.14-- 63.0-- 5.9-
2024-02-21 04:18 am-------30.14-- 63.0-- 5.9-
2024-02-21 04:12 am-------30.14-- 63.0-- 5.9-
2024-02-21 04:06 am-------30.14-- 63.0-- 5.9-
2024-02-21 04:00 am-------30.14-0.03- 63.0-- 5.9-
2024-02-21 03:54 am-------30.14-- 63.0-- 5.9-
2024-02-21 03:48 am-------30.14-- 63.0-- 5.9-
2024-02-21 03:42 am-------30.14-- 63.0-- 5.9-
2024-02-21 03:36 am-------30.14-- 63.0-- 5.9-
2024-02-21 03:30 am-------30.14-- 63.0-- 5.9-
2024-02-21 03:24 am-------30.14-- 63.0-- 5.9-
2024-02-21 03:18 am-------30.15-- 63.0-- 5.9-
2024-02-21 03:12 am-------30.15-- 63.0-- 5.9-
2024-02-21 03:06 am-------30.15-- 63.0-- 5.9-
2024-02-21 03:00 am-------30.15-0.04- 63.1-- 5.9-
2024-02-21 02:54 am-------30.15-- 63.1-- 5.9-
2024-02-21 02:48 am-------30.15-- 63.0-- 5.9-
2024-02-21 02:42 am-------30.15-- 63.1-- 5.9-
2024-02-21 02:36 am-------30.15-- 63.1-- 5.9-
2024-02-21 02:30 am-------30.15-- 63.1-- 5.9-
2024-02-21 02:24 am-------30.16-- 63.1-- 5.9-
2024-02-21 02:18 am-------30.16-- 63.1-- 5.9-
2024-02-21 02:12 am-------30.16-- 63.1-- 5.9-
2024-02-21 02:06 am-------30.16-- 63.1-- 5.9-
2024-02-21 02:00 am-------30.16-0.04- 63.1-- 5.9-
2024-02-21 01:54 am-------30.16-- 63.1-- 5.9-
2024-02-21 01:48 am-------30.16-- 63.1-- 5.9-
2024-02-21 01:42 am-------30.17-- 63.0-- 5.9-
2024-02-21 01:36 am-------30.17-- 63.0-- 5.9-
2024-02-21 01:30 am-------30.17-- 63.0-- 5.9-
2024-02-21 01:24 am-------30.17-- 63.0-- 5.9-
2024-02-21 01:18 am-------30.17-- 63.0-- 5.9-
2024-02-21 01:12 am-------30.17-- 63.0-- 5.9-
2024-02-21 01:06 am-------30.17-- 63.0-- 5.9-
2024-02-21 01:00 am-------30.17-0.02- 63.0-- 5.9-
2024-02-21 12:54 am-------30.17-- 63.0-- 5.9-
2024-02-21 12:48 am-------30.18-- 63.0-- 5.9-
2024-02-21 12:42 am-------30.18-- 63.0-- 5.9-
2024-02-21 12:36 am-------30.18-- 63.0-- 5.9-
2024-02-21 12:30 am S 8 9----30.18-- 63.0-- 5.9-
2024-02-21 12:24 am S 8 9----30.18- 63.3 63.0 63.3- 5.9-
2024-02-21 12:18 am S 7 9----30.18- 63.1- 63.1- 5.9-
2024-02-21 12:12 amSSE 7 8----30.19- 63.1 63.0 63.1- 5.9-
2024-02-21 12:06 amSSE 7 9----30.19- 63.3 63.0 63.3- 5.9-
2024-02-21 12:00 amSSE 7 8----30.19+0.00 63.3 63.0 63.3- 5.9-
2024-02-20 11:54 pmSSE 8 9----30.19- 63.3 63.0 63.3- 5.9-
2024-02-20 11:48 pmSSE 7 9----30.19- 63.3 63.0 63.3- 5.9-
2024-02-20 11:42 pm S 8 11----30.19- 63.7 63.0 63.7- 5.9-
2024-02-20 11:36 pm S 9 11----30.19- 63.9 63.0 63.9- 5.9-
2024-02-20 11:30 pm S 10 12----30.19- 64.0 63.0 64.0- 5.9-
2024-02-20 11:24 pm S 10 12----30.20- 64.0 63.0 64.0- 5.9-
2024-02-20 11:18 pm S 11 13----30.20- 64.0 63.0 64.0- 5.9-
2024-02-20 11:12 pm S 9 11----30.20- 63.7 63.0 63.7- 5.9-
2024-02-20 11:06 pmSSE 9 12----30.20- 63.7 63.0 63.7- 5.9-
2024-02-20 11:00 pmSSE 9 11----30.20+0.02 63.9 63.0 63.9- 5.9-
2024-02-20 10:54 pmSSE 9 12----30.20- 64.0 63.0 64.0- 5.9-
2024-02-20 10:48 pm S 10 13----30.20- 64.0 63.0 64.0- 5.9-
2024-02-20 10:42 pm S 12 14----30.20- 64.4 63.0 64.4- 5.9-
2024-02-20 10:36 pm S 11 13----30.20- 64.0 63.0 64.0- 5.9-
2024-02-20 10:30 pm S 11 13----30.20- 63.9 63.0 63.9- 5.9-
2024-02-20 10:24 pm S 11 13----30.20- 63.9 63.0 63.9- 5.9-
2024-02-20 10:18 pm S 11 13----30.20- 63.9 63.0 63.9- 5.9-
2024-02-20 10:12 pm S 11 13----30.20- 63.7 63.0 63.7- 5.9-
2024-02-20 10:06 pmSSE 10 13----30.19- 63.7 63.0 63.7- 5.9-
2024-02-20 10:00 pm S 11 13----30.19+0.02 63.9 63.0 63.9- 5.9-
2024-02-20 09:54 pm S 11 13----30.19- 63.7 63.0 63.7- 5.9-
2024-02-20 09:48 pmSSE 11 13----30.19- 63.5 63.1 63.5- 5.9-
2024-02-20 09:42 pmSSE 11 14----30.19- 63.7 63.0 63.7- 5.9-
2024-02-20 09:36 pmSSE 11 14----30.19- 63.7 63.0 63.7- 5.9-
2024-02-20 09:30 pmSSE 10 13----30.19- 63.7 63.0 63.7- 5.9-
2024-02-20 09:24 pmSSE 10 13----30.19- 63.7 63.1 63.7- 5.9-
2024-02-20 09:18 pmSSE 12 13----30.19- 63.9 63.1 63.9- 5.9-
2024-02-20 09:12 pmSSE 11 13----30.19- 63.9 63.1 63.9- 5.9-
2024-02-20 09:06 pmSSE 12 13----30.19- 63.9 63.1 63.9- 5.9-
2024-02-20 09:00 pmSSE 12 14----30.19+0.01 63.9 63.1 63.9- 5.9-
2024-02-20 08:54 pmSSE 12 13----30.19- 63.9 63.1 63.9- 5.9-
2024-02-20 08:48 pmSSE 12 13----30.19- 64.0 63.1 64.0- 5.9-
2024-02-20 08:42 pmSSE 12 13----30.19- 64.0 63.1 64.0- 5.9-
2024-02-20 08:36 pmSSE 12 13----30.18- 64.0 63.1 64.0- 5.9-
2024-02-20 08:30 pmSSE 12 13----30.18- 64.0 63.1 64.0- 5.9-
2024-02-20 08:24 pmSSE 12 13----30.18- 64.0 63.1 64.0- 5.9-
2024-02-20 08:18 pm SE 12 13----30.18- 64.0 63.1 64.0- 5.9-
2024-02-20 08:12 pm SE 12 13----30.18- 64.0 63.1 64.0- 5.9-
2024-02-20 08:06 pm SE 11 13----30.18- 64.0 63.1 64.0- 5.9-
2024-02-20 08:00 pm SE 11 12----30.18+0.01 64.2 63.1 64.2- 5.9-
2024-02-20 07:54 pm SE 11 12----30.19- 64.2 63.1 64.2- 5.9-
2024-02-20 07:48 pm SE 11 12----30.18- 64.2 63.1 64.2- 5.9-
2024-02-20 07:42 pm SE 11 12----30.18- 64.4 63.1 64.4- 5.9-
2024-02-20 07:36 pm SE 12 13----30.18- 64.4 63.1 64.4- 5.9-
2024-02-20 07:30 pm SE 12 13----30.18- 64.6 63.1 64.6- 5.9-
2024-02-20 07:24 pm SE 12 14----30.18- 64.8 63.1 64.8- 5.9-
2024-02-20 07:18 pm SE 12 13----30.18- 64.8 63.1 64.8- 5.9-
2024-02-20 07:12 pm SE 12 14----30.17- 64.8 63.1 64.8- 5.9-
2024-02-20 07:06 pm SE 12 14----30.17- 64.9 63.1 64.9- 5.9-
2024-02-20 07:00 pm SE 11 14----30.17+0.00 64.9 63.3 64.9- 5.9-
2024-02-20 06:54 pm SE 12 13----30.17- 65.1 63.3 65.1- 5.9-
2024-02-20 06:48 pm SE 12 14----30.17- 65.1 63.3 65.1- 5.9-
2024-02-20 06:42 pm SE 12 14----30.17- 65.3 63.1 65.3- 5.9-
2024-02-20 06:36 pm SE 12 14----30.17- 65.3 63.1 65.3- 5.9-
2024-02-20 06:30 pm SE 12 13----30.17- 65.5 63.1 65.5- 5.9-
2024-02-20 06:24 pm SE 12 13----30.17- 65.7 63.0 65.7- 5.9-
2024-02-20 06:18 pm SE 12 14----30.17- 65.8 63.0 65.8- 5.9-
2024-02-20 06:12 pm SE 12 14----30.17- 66.0 63.1 66.0- 5.9-
2024-02-20 06:06 pm SE 12 15----30.17- 66.2 63.0 66.0- 5.9-
2024-02-20 06:00 pm SE 13 14----30.17-0.01 66.6 63.0 66.2- 5.9-
2024-02-20 05:54 pm SE 13 15----30.17- 66.7 63.0 66.2- 5.9-
2024-02-20 05:48 pm SE 13 16----30.17- 66.9 63.0 66.0- 5.9-
2024-02-20 05:42 pm SE 13 15----30.17- 66.9 63.0 65.8- 5.9-
2024-02-20 05:36 pm SE 13 15----30.17- 67.1 63.0 66.0- 5.9-
2024-02-20 05:30 pm SE 13 15----30.17- 67.3 63.0 66.0- 5.9-
2024-02-20 05:24 pm SE 13 15----30.17- 67.5 63.0 66.2- 5.9-
2024-02-20 05:00 pm SE 13 14----30.17-0.03 67.8 63.1 66.6- 5.9-
2024-02-20 04:54 pm SE 13 15----30.17- 67.8 63.1 66.6- 5.9-
2024-02-20 04:48 pm SE 13 14----30.17- 67.8 63.1 66.2- 5.9-
2024-02-20 04:42 pm SE 13 14----30.17- 68.0 63.1 66.4- 5.9-
2024-02-20 04:36 pm SE 13 14----30.17- 67.8 63.0 66.4- 5.9-
2024-02-20 04:30 pm SE 13 14----30.17- 68.0 63.0 66.6- 5.9-
2024-02-20 04:24 pm SE 13 15----30.17- 68.0 62.8 66.6- 5.9-
2024-02-20 04:18 pm SE 13 15----30.17- 68.4 62.8 66.7- 5.9-
2024-02-20 04:12 pm SE 13 14----30.17- 68.2 62.8 66.6- 5.9-
2024-02-20 04:06 pm SE 13 14----30.17- 68.5 62.8 67.1- 5.9-
2024-02-20 04:00 pm SE 12 14----30.17-0.05 68.5 62.8 67.1- 5.9-
2024-02-20 03:54 pm SE 12 14----30.17- 68.4 62.8 66.9- 5.9-
2024-02-20 03:48 pm SE 12 13----30.17- 68.5 62.8 66.7- 5.9-
2024-02-20 03:42 pm SE 12 13----30.17- 68.5 62.8 66.7- 5.9-
2024-02-20 03:36 pm SE 11 13----30.17- 68.7 62.8 67.1- 5.9-
2024-02-20 03:30 pm SE 12 13----30.17- 68.7 63.0 66.7- 5.9-
2024-02-20 03:24 pm SE 11 13----30.17- 68.7 62.8 67.1- 5.9-
2024-02-20 03:18 pm SE 12 13----30.17- 69.1 62.8 67.5- 5.9-
2024-02-20 03:12 pm SE 12 13----30.18- 69.1 62.8 67.5- 5.9-
2024-02-20 03:06 pmSSE 12 13----30.18- 69.1 62.8 67.8- 5.9-
2024-02-20 03:00 pm SE 12 13----30.18-0.07 68.9 62.8 67.6- 5.9-
2024-02-20 02:54 pmSSE 12 14----30.18- 68.7 62.8 67.5- 5.9-